Kecskemet, Hungary

8:43 AM CET on February 06, 2016 (GMT +0100)
Kecskemet

Weather History for LHKE - October, 2012

Change the Weather History Date:

Saturday, October 13, 2012

  Actual Average (LHBP) Record (LHBP)
Temperature  
Mean Temperature 54 °F -  
Max Temperature 64 °F 60 °F 78 °F (2000)
Min Temperature 44 °F 40 °F 30 °F (2003)
Degree Days  
Heating Degree Days 11    
Growing Degree Days 4 (Base 50)    
Moisture  
Dew Point 44 °F    
Average Humidity 72    
Maximum Humidity 94    
Minimum Humidity 48    
Precipitation  
Precipitation 0.00 in - - ()
Sea Level Pressure  
Sea Level Pressure 29.97 in    
Wind  
Wind Speed 3 mph ()    
Max Wind Speed 7 mph    
Max Gust Speed -    
Visibility 5.2 miles    
Events Rain    
Averages and records for this station are not official NWS values.
T = Trace of Precipitation, MM = Missing Value Source: Averaged Metar Reports

Daily Weather History Graph

Daily Weather History Graph

Search for Another Location

Airport or City:

Trip Planner

Search our weather history database for the weather conditions in past years. The results will help you decide how hot, cold, wet, or windy it might be!

Date:

Astronomy

Oct. 13, 2012 Rise Set
Actual Time 6:56 AM CEST 5:57 PM CEST
Civil Twilight 6:25 AM CEST 6:27 PM CEST
Nautical Twilight 5:50 AM CEST 7:02 PM CEST
Astronomical Twilight 5:15 AM CEST 7:37 PM CEST
Moon 4:18 AM CEST (10/13) 4:35 PM CEST (10/13)
Length of Visible Light 12h 01m
Length of Day
11h 00m
Waning Crescent, 6% of the Moon is Illuminated
Oct 13
Waning Crescent
Oct 15
New
Oct 22
First Quarter
Oct 29
Full
Nov 7
Last Quarter

Hourly Weather History & Observations

Time (CEST) Temp. Windchill Dew Point Humidity Pressure Visibility Wind Dir Wind Speed Gust Speed Precip Events Conditions
12:15 AM 51.8 °F - 42.8 °F 71% 29.95 in - North 4.5 mph - N/A   Clear
1:15 AM 51.8 °F - 42.8 °F 71% 29.95 in - North 4.5 mph - N/A   Clear
1:45 AM 51.8 °F - 42.8 °F 71% 29.98 in - North 4.5 mph - N/A   Clear
2:15 AM 51.8 °F - 42.8 °F 71% 29.95 in - North 2.2 mph - N/A   Clear
2:45 AM 50.0 °F - 42.8 °F 76% 29.95 in - North 4.5 mph - N/A   Clear
3:15 AM 50.0 °F - 42.8 °F 76% 29.98 in - North 4.5 mph - N/A   Clear
3:45 AM - - - N/A% - 6.2 mi NNE 6.7 mph - N/A   Overcast
4:45 AM 50.0 °F - 41.0 °F 71% 29.98 in - North 2.2 mph - N/A   Clear
5:15 AM 48.2 °F - 41.0 °F 76% 29.98 in - NE 4.5 mph - N/A   Clear
5:45 AM 48.2 °F - 41.0 °F 76% 29.98 in - NNE 4.5 mph - N/A   Clear
6:15 AM 46.4 °F 44.4 °F 42.8 °F 87% 29.98 in - North 4.5 mph - N/A   Clear
6:45 AM 46.4 °F - 41.0 °F 81% 29.98 in - North 2.2 mph - N/A   Clear
7:15 AM 44.6 °F 42.3 °F 42.8 °F 93% 30.01 in - North 4.5 mph - N/A   Clear
7:45 AM 46.4 °F - 42.8 °F 87% 30.01 in - NNW 2.2 mph - N/A   Clear
8:15 AM 50.0 °F - 44.6 °F 82% 30.01 in - WNW 2.2 mph - N/A   Clear
8:45 AM 50.0 °F - 42.8 °F 76% 30.01 in - West 2.2 mph - N/A   Clear
9:15 AM 53.6 °F - 41.0 °F 62% 30.04 in - NNW 2.2 mph - N/A   Clear
9:45 AM - - - N/A% - 6.2 mi Variable 4.5 mph - N/A   Clear
10:45 AM 57.2 °F - 41.0 °F 55% 30.04 in - NNW 2.2 mph - N/A   Clear
11:45 AM 60.8 °F - 41.0 °F 48% 30.01 in - NW 4.5 mph - N/A   Clear
12:15 PM 60.8 °F - 42.8 °F 52% 30.01 in - NNW 4.5 mph - N/A   Clear
12:45 PM 62.6 °F - 44.6 °F 52% 30.01 in - NW 2.2 mph - N/A   Clear
1:15 PM 62.6 °F - 42.8 °F 48% 30.01 in - West 4.5 mph - N/A   Clear
2:45 PM 64.4 °F - 44.6 °F 49% 29.98 in - SSW 2.2 mph - N/A   Clear
3:15 PM 64.4 °F - 44.6 °F 49% 29.98 in - West 2.2 mph - N/A   Clear
3:45 PM - - - N/A% - 3.7 mi SE 4.5 mph - N/A Rain Rain
4:45 PM 62.6 °F - 46.4 °F 55% 29.95 in - South 2.2 mph - N/A   Clear
5:15 PM 60.8 °F - 46.4 °F 59% 29.95 in - South 4.5 mph - N/A   Clear
5:45 PM 59.0 °F - 46.4 °F 63% 29.95 in - South 4.5 mph - N/A   Clear
6:15 PM 57.2 °F - 48.2 °F 72% 29.95 in - South 2.2 mph - N/A   Clear
6:45 PM - - - N/A% - 6.2 mi Variable 4.5 mph - N/A   Overcast
7:15 PM 51.8 °F - 48.2 °F 88% 29.95 in - Calm Calm - N/A   Clear
7:45 PM 50.0 °F - 48.2 °F 94% 29.95 in - Calm Calm - N/A   Clear
8:15 PM 50.0 °F - 48.2 °F 94% 29.95 in - Calm Calm - N/A   Clear
8:45 PM 50.0 °F - 48.2 °F 94% 29.95 in - Calm Calm - N/A   Clear
9:15 PM 53.6 °F - 48.2 °F 82% 29.95 in 5.0 mi Calm Calm - N/A   Mostly Cloudy
9:45 PM - - - N/A% - 5.0 mi Variable 4.5 mph - N/A   Overcast
10:15 PM 53.6 °F - 48.2 °F 82% 29.95 in 5.0 mi Calm Calm - N/A   Mostly Cloudy
10:45 PM 55.4 °F - 48.2 °F 77% 29.92 in 5.0 mi Calm Calm - N/A   Mostly Cloudy
11:15 PM 53.6 °F - 48.2 °F 82% 29.92 in 5.0 mi SSE 2.2 mph - N/A   Mostly Cloudy
11:45 PM 53.6 °F - 48.2 °F 82% 29.92 in 5.0 mi SE 2.2 mph - N/A   Unknown